Location: Janeiro
(34.9957°N, 76.7652°W)
Time: 09:13:07
(UTC+00:00)

Sakura Rocket - Pass Details

Date: 14 December 2019
Orbit: 476 x 1744 km, 28.7° (Epoch: 24 January)

Event Time Altitude Azimuth Distance (km) Brightness Sun altitude
Rises 22:54:31 0° 258° (WSW) 2,832 8.5 -11.7°
Reaches altitude 10° 22:56:39 10° 251° (WSW) 2,052 7.3 -12.1°
Maximum altitude 23:01:10 43° 180° (S) 1,091 4.4 -13.0°
Enters shadow 23:07:17 10° 110° (ESE) 2,770 5.9 -14.1°
